sat.trackr.live / text

‹ back to catalog

ONEWEB-0287

NORAD 49077 · 2021-075C

PAYLOAD ACTIVE UNKNOWN

§ Identity

Operator
Country
UK
Launch date
2021-08-21
Launch site
TYMSC
Launch vehicle
Mass (kg)
RCS (m²)

Purposes: comms

External: N2YO · Heavens-Above · Gunter

§ Orbital elements

Epoch: 2026-09-20T03:54:27.124416Z

Period
109.29 min
Inclination
87.9200°
Eccentricity
0.0002041
Mean motion
13.17649542 rev/d
Perigee alt
1,192.2 km
Apogee alt
1,195.3 km
Semi-major
7,571.8 km
B*
1.4913e-4
RAAN
347.0055°
Arg perigee
111.5948°
Mean anomaly
248.5402°
Rev number
24,613

§ Raw data

ONEWEB-02871 49077U 21075C   26263.16281394  .00000071  00000+0  14913-3 0  99932 49077  87.9200 347.0055 0002041 111.5948 248.5402 13.17649542246138

JSON: /api/v1/satellites/49077 · /tle

For live sub-satellite position, see the globe view (requires WebGL).

§ Visibility from observer

Set your observer location to see the next 7 days of passes ≥ 10°. The values pass through the URL so the page stays shareable.

No JS? Fill the form by hand. The geolocation button needs JavaScript.